www.pogodaiklimat.ru

Погода и климат >> Архив погоды >> Таиланд >> Пхетчабури


ПОГОДА в Пхетчабури

  • Прогноз погоды в Пхетчабури
  • Монитор погоды в Пхетчабури

АРХИВ ПОГОДЫ в Пхетчабури

Время (UTC), дата Ветер
(напр.,м/с)
 
Видим.   Явления Облачность Т
(С)
Тd
(С)
f
(%)
Тe
(С)
Тes
(С)
Комфортность P
(гПа)
Po
(гПа)
Тmin
(С)
Tmax
(С)
R
(мм)
R24
(мм)
S
(см)
12 14.04 Ю 12 11 км 6/1 600 м
[Cb cap Ci ing]
+31.6 +27.3 78 +50 +50 опасность
перегрева
1007.5 1007.0 +35.6
15 14.04 Ю 13 11 км 6/3 600 м
[Sc Cs]
+31.0 +28.3 86 +52 +52 опасность
перегрева
1009.3 1008.9
18 14.04 ЮЗ 12 11 км 6/0
[Ac lent Cs]
+30.0 +27.5 86 +48 +48 опасность
перегрева
1009.2 1008.8
21 14.04 З 11 11 км 6/0
[Cs]
+29.4 +27.5 90 +48 +48 опасность
перегрева
1008.0 1007.6
00 15.04 З 11 11 км 6/0
[Cs]
+29.5 +27.3 88 +47 +47 опасность
перегрева
1009.3 1008.9 +28.5
03 15.04 Ю 9 11 км 6/0
[Ac lent Cs]
+34.0 +28.3 72 +55 +56 опасность
перегрева
1010.7 1010.3
06 15.04 Ю 15 11 км 6/3 600 м
[Cu med, cong Ac lent Cs]
+33.5 +28.6 76 +56 +56 опасность
перегрева
1009.2 1008.8
09 15.04 Ю 14 11 км 6/3 600 м
[Sc Cs]
+33.4 +29.1 78 +57 +57 опасность
перегрева
1006.9 1006.5
12 15.04 Ю 12 11 км 8/3 600 м
[Sc Ac As Cs]
+31.3 +28.9 87 +54 +54 опасность
перегрева
1008.3 1007.9 +36.1
15 15.04 Ю 10 11 км 8/0
[Cs]
+30.9 +28.6 88 +53 +53 опасность
перегрева
1010.2 1009.8
18 15.04 З 5 11 км 6/0
[Cs]
+29.7 +27.3 87 +47 +47 опасность
перегрева
1009.0 1008.5
21 15.04 ЮЗ 6 11 км 6/0
[Cs]
+27.8 +24.5 82 +39 +39 очень
душно
1007.3 1006.8
00 16.04 штиль 0 11 км 6/0
[Ac lent Cs]
+27.4 +25.7 90 +40 +41 очень
душно
1009.1 1008.7 +27.0
03 16.04 Ю 5 11 км 4/0
[Cs]
+32.5 +28.8 81 +55 +63 опасность
перегрева
1011.3 1010.9
06 16.04 ЮВ 15 11 км 4/0
[Cs]
+34.5 +28.8 72 +57 +57 опасность
перегрева
1009.6 1009.2
09 16.04 Ю 12 11 км 4/0
[Cs]
+33.1 +29.6 82 +59 +59 опасность
перегрева
1006.9 1006.5
12 16.04 ЮЗ 5 11 км 4/0
[Cs]
+31.3 +28.9 87 +54 +54 опасность
перегрева
1008.6 1008.1 +36.6
15 16.04 Ю 5 11 км 4/0
[Cs]
+30.8 +28.5 88 +52 +52 опасность
перегрева
1009.8 1009.3
18 16.04 ЮЗ 10 11 км 4/0
[Cs]
+30.5 +28.4 89 +52 +52 опасность
перегрева
1009.1 1008.7
21 16.04 ЮЗ 8 11 км 4/0
[Cs]
+28.5 +26.4 88 +43 +43 опасность
перегрева
1008.3 1007.9
00 17.04 ЮЗ 5 11 км 4/0
[Cs]
+29.1 +26.1 84 +44 +45 опасность
перегрева
1009.5 1009.1 +28.0
03 17.04 Ю 8 11 км 4/0
[Cs]
+33.8 +28.5 74 +56 +58 опасность
перегрева
1011.6 1011.1
06 17.04 Ю 15 11 км 4/1 600 м
[Cu med, cong Cs]
+33.9 +28.2 72 +55 +55 опасность
перегрева
1009.3 1008.9
09 17.04 Ю 16 11 км 4/1 600 м
[Cu med, cong Cs]
+33.0 +29.1 80 +57 +57 опасность
перегрева
1006.2 1005.8
12 17.04 Ю 18 11 км 4/1 600 м
[Cb cap Ci ing]
+31.6 +28.7 85 +54 +54 опасность
перегрева
1007.2 1006.7 +36.1
15 17.04 Ю 12 11 км 4/0
[Cs]
+31.1 +28.9 88 +54 +54 опасность
перегрева
1009.2 1008.7
18 17.04 Ю 16 11 км 4/0
[Cs]
+30.7 +28.4 88 +52 +52 опасность
перегрева
1008.1 1007.7
21 17.04 Ю 3 11 км 4/0
[Cs]
+30.3 +28.5 90 +51 +51 опасность
перегрева
1007.0 1006.5
00 18.04 ЮЗ 3 11 км 4/0
[Cs]
+29.5 +26.9 86 +46 +47 опасность
перегрева
1009.1 1008.7 +29.2
03 18.04 ЮВ 2 11 км 4/0
[Cs]
+34.4 +28.3 71 +56 +70 опасность
перегрева
1009.9 1009.5
06 18.04 Ю 15 11 км 4/3 600 м
[Sc Cs]
+34.5 +29.1 74 +59 +59 опасность
перегрева
1008.4 1008.0
09 18.04 Ю 14 11 км 6/3 600 м
[Sc Ac lent Cs]
+34.8 +29.9 76 +62 +62 опасность
перегрева
1005.6 1005.2
12 18.04 Ю 9 11 км 6/0
[Ac lent Cs]
+31.7 +29.4 88 +56 +56 опасность
перегрева
1007.0 1006.6 +36.4
15 18.04 ЮВ 5 11 км 6/0
[Ac lent Cs]
+31.0 +28.0 84 +51 +51 опасность
перегрева
1008.3 1007.8
18 18.04 штиль 0 11 км 4/0
[Cs]
+28.8 +24.0 75 +40 +40 очень
душно
1007.7 1007.3
21 18.04 ЮЗ 10 11 км 4/0
[Cs]
+29.8 +26.4 82 +46 +46 опасность
перегрева
1006.0 1005.6
00 19.04 ЮЗ 7 11 км 4/0
[Ac lent Cs]
+29.7 +25.9 80 +44 +45 опасность
перегрева
1006.7 1006.3 +28.3
03 19.04 Ю 5 11 км 4/0
[Cs]
+34.0 +26.8 66 +51 +59 опасность
перегрева
1009.0 1008.6
06 19.04 Ю 15 11 км 4/0
[Cs]
+34.4 +27.3 67 +53 +53 опасность
перегрева
1007.1 1006.6
09 19.04 Ю 15 11 км 4/0
[Cs]
+34.0 +28.6 74 +57 +57 опасность
перегрева
1004.4 1003.9
12 19.04 Ю 10 11 км 4/0
[Cs]
+32.3 +28.8 82 +55 +55 опасность
перегрева
1005.2 1004.8 +35.9
15 19.04 Ю 8 11 км 3/0
[Cs]
+31.8 +30.0 90 +58 +58 опасность
перегрева
1007.2 1006.8
18 19.04 штиль 0 11 км 3/0
[Cs]
+30.0 +24.9 74 +43 +43 опасность
перегрева
1006.0 1005.6
21 19.04 СЗ 4 11 км 3/0
[Cs]
+28.8 +23.7 74 +39 +39 очень
душно
1005.2 1004.7
00 20.04 штиль 0 11 км 6/0
[Ac lent Cs]
+28.0 +23.9 78 +39 +40 очень
душно
1006.1 1005.6 +27.5
03 20.04 Ю 2 11 км 3/0
[Cs]
+34.5 +23.8 54 +46 +60 опасность
перегрева
1007.3 1006.9
06 20.04 Ю 8 11 км 3/0
[Cs]
+36.0 +27.1 60 +54 +58 опасность
перегрева
1005.7 1005.3
09 20.04 Ю 13 11 км 3/1 600 м
[Cu med, cong Cs]
+34.6 +27.5 67 +54 +54 опасность
перегрева
1002.7 1002.3
12 20.04 Ю 10 11 км 4/1 600 м
[Cb cap Ci ing]
+32.8 +27.1 72 +51 +51 опасность
перегрева
1003.2 1002.8 +38.4
15 20.04 Ю 5 11 км 4/0
[Cs]
+32.0 +29.3 86 +56 +56 опасность
перегрева
1005.0 1004.6
18 20.04 ЮЗ 3 11 км 4/0
[Cs]
+31.5 +27.5 79 +50 +50 опасность
перегрева
1004.7 1004.2
21 20.04 ЮЗ 3 11 км 4/0
[Cs]
+30.0 +25.8 78 +45 +45 опасность
перегрева
1003.6 1003.2
00 21.04 З 3 11 км 4/0
[Cs]
+28.3 +24.7 81 +40 +41 очень
душно
1005.4 1005.0 +28.1
03 21.04 Ю 8 11 км 3/0
[Cs]
+34.7 +26.8 64 +52 +55 опасность
перегрева
1007.2 1006.8
06 21.04 Ю 9 11 км 3/0
[Cs]
+35.1 +28.5 69 +57 +59 опасность
перегрева
1005.3 1004.9
09 21.04 ЮВ 13 11 км 3/0
[Cs]
+33.8 +28.2 73 +55 +55 опасность
перегрева
1002.8 1002.3

 

Местоположение метеостанции Пхетчабури (Таиланд): широта 13.15 долгота 100.06 высота над уровнем моря 4 м.

В архиве по умолчанию представлена погода в Пхетчабури за последнюю неделю. Архивные данные за месяц целиком и за предыдущие месяцы, начиная с января 2011 года, Вы можете получить, выбрав интересующий диапазон дат из раскрывающегося списка и нажав кнопку "Ввод!".


*Определитесь, кто Вы:
робот инопланетянин человек

Внимание! Время в таблицах - всемирное. Для получения местного времени необходимо прибавить поправку, которая равна 7 ч.

Смотрите также архив погоды в соседних городах и на ближайших метеорологических станциях:

Погода в Самутсонгкхраме (Таиланд) (29 км)
Погода в Бангкок Пилот (Таиланд) (64 км)
Погода в Хуахине (Таиланд) (65 км)
Погода в Нонг Флуб Агромете (Таиланд) (73 км)
Погода на Ко Сичан (Таиланд) (80 км)
Погода в Бангкоке 2 (Таиланд) (82 км)
Погода в Бангна Агромете (Таиланд) (84 км)
Погода в Бангкоке (Таиланд) (84 км)
Погода в Самутрудкан Агромете (Таиланд) (85 км)
Погода в Паттайе (Таиланд) (90 км)

Пояснения к столбцам:

Ветер - указаны скорость ветра в м/с - средняя за 10 мин, порывы в срок и между сроками (в фигурных скобках) и направление, откуда дует ветер: С - северный, СВ - северо-восточный, В - восточный, ЮВ - юго-восточный, Ю - южный, ЮЗ - юго-западный, З - западный, СЗ - северо-западный.
Видимость - горизонтальная дальность видимости в метрах или километрах. При видимости от 1 до 10 км при отсутствии осадков обычно наблюдается дымка, при ухудшении видимости до 1 км и менее - туман. В сухую погоду видимость может ухудшаться дымом, пылью или мглою.
Явления - указаны атмосферные явления, наблюдавшиеся в срок или в последний час перед сроком; фигурными скобками обозначены явления, наблюдавшиеся между сроками (за 1-3 часа до срока); квадратными скобками обозначены град или гололедные отложения с указанием их диаметра в мм.
Облачность - указаны через наклонную черту общая и нижняя облачность в баллах и высота нижней границы облаков в метрах; квадратными скобками обозначены формы облаков: Ci - перистые, Cs - перисто-слоистые, Cc - перисто-кучевые, Ac - высококучевые, As - высокослоистые, Sc - слоисто-кучевые, Ns - слоисто-дождевые, Cu - кучевые, Cb - кучево-дождевые. Подробнее классификацию облаков см. в Атласе облаков (PDF).
T - Температура воздуха - температура, измеренная на высоте 2 м над землей.
Td - Температура точки росы - температура, при понижении до которой содержащийся в воздухе водяной пар достигнет насыщения.
f - Относительная влажность воздуха - влажноcть воздуха, измеренная на высоте 2 м над землей.
Te - Эффективная температура - температура, которую ощущает одетый по сезону человек в тени. Характеристика душности погоды. При расчете учитывается влияние влажности воздуха и скорости ветра на теплоощущения человека.
Tes - Эффективная температура на солнце - температура, которую ощущает человек, с поправкой на солнечный нагрев. Характеристика знойности погоды. Зависит от высоты солнца над горизонтом, облачности и скорости ветра. Ночью, в пасмурную погоду, а также при ветре 12 м/с и более поправка равна нулю.
P - Атмосферное давление - приведенное к уровню моря атмосферное давление.
Po - Атмосферное давление - измеренное на уровне метеостанции атмосферное давление.
Tmin - Минимальная температура - минимум температуры воздуха на высоте 2 м над землей.
Tmax - Максимальная температура - максимум температуры воздуха на высоте 2 м над землей.
R - Количество осадков - Количество выпавших осадков за период времени, мм. При наведении курсора мыши на число - период времени, за который выпало указанное количество осадков.
R24 - Количество осадков - Количество выпавших осадков за 24 часа, мм.
S - Снежный покров - Высота снежного покрова, см. При наведении курсора мыши на число - состояние снежного покрова и степень покрытия местности в баллах.